EW2672 Weather Reports


Display with metric or nautical units.
time (UTC)temp
F
wind
direction
speed
MPH
gust
MPH
rain 1hr
in
rain 24hr
in
rain mn
in
humidity
%
barometer
mb
20260831111849 77 0.0 6.0 0.00 0.00 0.00 87 1016.4
20260831111348 77 177 1.0 6.0 0.00 0.00 0.00 86 1016.4
20260831110845 77 0.0 3.0 0.00 0.00 0.00 86 1016.3
20260831110343 77 0.0 4.0 0.00 0.00 0.00 86 1016.3
20260831105839 77 0.0 3.0 0.00 0.00 0.00 86 1016.3
20260831105338 77 0.0 3.0 0.00 0.00 0.00 86 1016.3
20260831104835 77 1.0 3.0 0.00 0.00 0.00 86 1016.3
20260831104333 77 0.0 5.0 0.00 0.00 0.00 86 1016.3
20260831103829 77 0.0 3.0 0.00 0.00 0.00 87 1016.3
20260831103328 77 0.0 1.0 0.00 0.00 0.00 86 1016.3
20260831102825 78 0.0 0.0 0.00 0.00 0.00 86 1016.3
20260831102322 78 0.0 4.0 0.00 0.00 0.00 86 1016.3
20260831101819 78 0.0 4.0 0.00 0.00 0.00 86 1016.4
20260831101317 78 0.0 5.0 0.00 0.00 0.00 86 1016.4
20260831100815 78 175 1.0 5.0 0.00 0.00 0.00 86 1016.5
20260831100312 78 0.0 2.0 0.00 0.00 0.00 86 1016.5
20260831095809 78 0.0 3.0 0.00 0.00 0.00 86 1016.4
20260831095307 78 1.0 3.0 0.00 0.00 0.00 86 1016.4
20260831094803 78 0.0 3.0 0.00 0.00 0.00 85 1016.4
20260831094302 78 0.0 5.0 0.00 0.00 0.00 85 1016.3
20260831093759 78 0.0 5.0 0.00 0.00 0.00 85 1016.3
20260831093257 78 0.0 3.0 0.00 0.00 0.00 85 1016.3
20260831092753 78 0.0 2.0 0.00 0.00 0.00 84 1016.3
20260831092252 78 0.0 2.0 0.00 0.00 0.00 84 1016.3
20260831091749 78 0.0 2.0 0.00 0.00 0.00 84 1016.3
20260831091247 78 0.0 0.0 0.00 0.00 0.00 83 1016.2
20260831090743 78 0.0 0.0 0.00 0.00 0.00 83 1016.2
20260831090242 78 0.0 3.0 0.00 0.00 0.00 83 1016.2
20260831085739 79 0.0 3.0 0.00 0.00 0.00 82 1016.2
20260831085237 79 0.0 2.0 0.00 0.00 0.00 82 1016.3
20260831084733 79 0.0 4.0 0.00 0.00 0.00 82 1016.2
20260831084232 79 175 1.0 4.0 0.00 0.00 0.00 81 1016.3
20260831083729 79 0.0 6.0 0.00 0.00 0.00 80 1016.3
20260831083227 79 175 3.0 6.0 0.00 0.00 0.00 80 1016.3
20260831082723 79 174 1.0 10.0 0.00 0.00 0.00 80 1016.3
20260831082222 79 174 2.0 10.0 0.00 0.00 0.00 79 1016.3
20260831081719 79 186 1.0 5.0 0.00 0.00 0.00 78 1016.3
20260831081216 79 186 1.0 6.0 0.00 0.00 0.00 78 1016.2
20260831080713 79 186 1.0 4.0 0.00 0.00 0.00 77 1016.2
20260831080211 79 186 1.0 4.0 0.00 0.00 0.00 77 1016.2
20260831075709 80 0.0 3.0 0.00 0.00 0.00 76 1016.2
20260831075206 80 0.0 3.0 0.00 0.00 0.00 76 1016.1
20260831074703 80 0.0 3.0 0.00 0.00 0.00 76 1016.2
20260831074201 80 186 1.0 3.0 0.00 0.00 0.00 76 1016.1
20260831073659 80 0.0 2.0 0.00 0.00 0.00 76 1016.2
20260831073156 80 0.0 0.0 0.00 0.00 0.00 76 1016.2
20260831072653 80 0.0 0.0 0.00 0.00 0.00 75 1016.1
20260831072151 80 0.0 0.0 0.00 0.00 0.00 75 1016.3
20260831071647 80 0.0 0.0 0.00 0.00 0.00 75 1016.3
20260831071146 81 0.0 0.0 0.00 0.00 0.00 74 1016.3
20260831070643 81 0.0 0.0 0.00 0.00 0.00 74 1016.3
20260831070141 81 0.0 0.0 0.00 0.00 0.00 73 1016.3
20260831065637 81 0.0 0.0 0.00 0.00 0.00 73 1016.2
20260831065136 81 0.0 0.0 0.00 0.00 0.00 72 1016.2
20260831064633 82 0.0 0.0 0.00 0.00 0.00 72 1016.2
20260831064131 82 0.0 0.0 0.00 0.00 0.00 71 1016.3
20260831063627 82 0.0 0.0 0.00 0.00 0.00 71 1016.4
20260831063126 82 0.0 0.0 0.00 0.00 0.00 70 1016.3
20260831062623 82 0.0 0.0 0.00 0.00 0.00 70 1016.4
20260831062121 82 0.0 4.0 0.00 0.00 0.00 69 1016.3
20260831061617 83 186 1.0 4.0 0.00 0.00 0.00 69 1016.3
20260831061115 83 186 1.0 4.0 0.00 0.00 0.00 69 1016.3
20260831060613 83 0.0 3.0 0.00 0.00 0.00 68 1016.4
20260831060110 83 0.0 0.0 0.00 0.00 0.00 68 1016.3
20260831055607 83 0.0 2.0 0.00 0.00 0.00 67 1016.2
20260831055105 83 0.0 2.0 0.00 0.00 0.00 67 1016.2
20260831054603 83 0.0 2.0 0.00 0.00 0.00 66 1016.2
20260831054100 84 0.0 2.0 0.00 0.00 0.00 66 1016.3
20260831053557 84 0.0 2.0 0.00 0.00 0.00 65 1016.2
20260831053055 84 0.0 2.0 0.00 0.00 0.00 65 1016.2
20260831052553 84 0.0 0.0 0.00 0.00 0.00 64 1016.1
20260831052050 84 0.0 0.0 0.00 0.00 0.00 64 1016.0
20260831051547 84 0.0 3.0 0.00 0.00 0.00 64 1016.0
20260831051045 85 0.0 3.0 0.00 0.00 0.00 63 1015.9
20260831050543 85 0.0 4.0 0.00 0.00 0.00 63 1016.0
20260831050040 85 186 1.0 4.0 0.00 0.00 0.00 63 1016.0
20260831045537 85 0.0 5.0 0.00 0.00 0.00 62 1015.8
20260831045035 85 1.0 6.0 0.00 0.00 0.00 62 1015.8
20260831044533 85 186 1.0 6.0 0.00 0.00 0.00 62 1015.8
20260831044030 85 177 1.0 6.0 0.00 0.00 0.00 62 1015.7
20260831043527 86 177 1.0 6.0 0.00 0.00 0.00 62 1015.7
20260831043025 86 177 1.0 5.0 0.00 0.00 0.00 62 1015.8
20260831042523 86 177 1.0 10.0 0.00 0.00 0.00 61 1015.8
20260831042020 86 1.0 10.0 0.00 0.00 0.00 61 1015.7
20260831041517 86 175 1.0 7.0 0.00 0.00 0.00 61 1015.7
20260831041015 86 2.0 8.0 0.00 0.00 0.00 60 1015.7
20260831040346 87 185 1.0 8.0 0.00 0.00 0.00 60 1015.7
20260831035844 87 174 2.0 10.0 0.00 0.00 0.00 60 1015.6
20260831035340 87 160 2.0 10.0 0.00 0.00 0.00 60 1015.6
20260831034838 87 145 1.0 8.0 0.00 0.00 0.00 60 1015.5
20260831034336 87 140 2.0 10.0 0.00 0.00 0.00 60 1015.5
20260831033834 87 154 4.0 10.0 0.00 0.00 0.00 60 1015.5
20260831033330 87 162 2.0 8.0 0.00 0.00 0.00 60 1015.4
20260831032828 87 161 1.0 8.0 0.00 0.00 0.00 60 1015.3
20260831032326 87 166 2.0 8.0 0.00 0.00 0.00 60 1015.2
20260831031824 87 162 3.0 7.0 0.00 0.00 0.00 60 1015.2
20260831031320 87 157 2.0 7.0 0.00 0.00 0.00 60 1015.3
20260831030818 88 1.0 7.0 0.00 0.00 0.00 60 1015.1
20260831030316 88 157 2.0 7.0 0.00 0.00 0.00 59 1015.0
20260831025814 88 156 1.0 6.0 0.00 0.00 0.00 59 1015.0
20260831025310 88 156 1.0 6.0 0.00 0.00 0.00 58 1014.9
20260831024808 88 157 2.0 9.0 0.00 0.00 0.00 58 1014.8
20260831024306 88 166 3.0 10.0 0.00 0.00 0.00 57 1014.8
20260831023804 88 201 1.0 10.0 0.00 0.00 0.00 56 1014.8
20260831023300 88 0.0 7.0 0.00 0.00 0.00 55 1014.7
20260831022758 87 166 1.0 6.0 0.00 0.00 0.00 54 1014.6
20260831022256 87 166 1.0 6.0 0.00 0.00 0.00 52 1014.5
20260831021754 86 0.0 0.0 0.00 0.00 0.00 52 1014.3
20260831021250 86 0.0 0.0 0.00 0.00 0.00 52 1014.2
20260831020748 86 0.0 0.0 0.00 0.00 0.00 52 1014.2
20260831020246 87 0.0 0.0 0.00 0.00 0.00 52 1014.1
20260831015744 87 0.0 0.0 0.00 0.00 0.00 52 1014.1
20260831015240 87 0.0 0.0 0.00 0.00 0.00 52 1014.0
20260831014738 88 0.0 0.0 0.00 0.00 0.00 51 1014.0
20260831014236 88 0.0 0.0 0.00 0.00 0.00 51 1013.9
20260831013732 88 0.0 0.0 0.00 0.00 0.00 50 1013.7
20260831013230 89 0.0 0.0 0.00 0.00 0.00 50 1013.8
20260831012728 89 0.0 0.0 0.00 0.00 0.00 50 1013.7
20260831012226 89 0.0 0.0 0.00 0.00 0.00 49 1013.7
20260831011724 90 0.0 0.0 0.00 0.00 0.00 48 1013.6
20260831011220 90 0.0 0.0 0.00 0.00 0.00 48 1013.6
20260831010718 91 0.0 0.0 0.00 0.00 0.00 47 1013.6
20260831010216 91 0.0 2.0 0.00 0.00 0.00 46 1013.6
20260831005714 91 0.0 2.0 0.00 0.00 0.00 46 1013.6
20260831005210 92 0.0 0.0 0.00 0.00 0.00 46 1013.5
20260831004708 92 0.0 1.0 0.00 0.00 0.00 46 1013.6
20260831004206 92 0.0 1.0 0.00 0.00 0.00 45 1013.5
20260831003704 93 0.0 3.0 0.00 0.00 0.00 45 1013.5
20260831003200 93 0.0 3.0 0.00 0.00 0.00 44 1013.5
20260831002658 93 0.0 2.0 0.00 0.00 0.00 43 1013.4
20260831002156 93 0.0 3.0 0.00 0.00 0.00 44 1013.4
20260831001654 94 0.0 1.0 0.00 0.00 0.00 44 1013.4
20260831001150 94 0.0 2.0 0.00 0.00 0.00 43 1013.4
20260831000648 94 0.0 5.0 0.00 0.00 0.00 43 1013.6
20260831000144 94 0.0 5.0 0.00 0.00 0.00 44 1013.5
20260830235642 93 0.0 1.0 0.00 0.00 0.00 44 1013.6
20260830235140 93 0.0 0.0 0.00 0.00 0.00 46 1013.6
20260830234638 93 0.0 0.0 0.00 0.00 0.00 45 1013.6
20260830234134 94 0.0 0.0 0.00 0.00 0.00 45 1013.5
20260830233632 94 0.0 0.0 0.00 0.00 0.00 44 1013.6
20260830233130 94 0.0 0.0 0.00 0.00 0.00 43 1013.6
20260830232628 95 0.0 2.0 0.00 0.00 0.00 43 1013.6
20260830232124 95 0.0 2.0 0.00 0.00 0.00 42 1013.6
20260830231622 96 0.0 6.0 0.00 0.00 0.00 41 1013.6
20260830231120 97 173 1.0 4.0 0.00 0.00 0.00 40 1013.6
20260830230618 97 0.0 2.0 0.00 0.00 0.00 39 1013.5
20260830230114 97 0.0 4.0 0.00 0.00 0.00 39 1013.5
20260830225612 97 174 1.0 4.0 0.00 0.00 0.00 38 1013.6
20260830225110 97 0.0 3.0 0.00 0.00 0.00 39 1013.6
20260830224608 97 0.0 4.0 0.00 0.00 0.00 38 1013.6
20260830224104 98 0.0 4.0 0.00 0.00 0.00 38 1013.7
20260830223602 98 1.0 6.0 0.00 0.00 0.00 38 1013.7
20260830223100 98 1.0 6.0 0.00 0.00 0.00 39 1013.7
20260830222558 98 1.0 6.0 0.00 0.00 0.00 38 1013.7
20260830222054 97 0.0 8.0 0.00 0.00 0.00 40 1013.7
20260830221552 98 154 3.0 8.0 0.00 0.00 0.00 39 1013.7
20260830221050 98 146 1.0 7.0 0.00 0.00 0.00 39 1013.8
20260830220548 98 0.0 7.0 0.00 0.00 0.00 39 1013.9
20260830220044 97 0.0 7.0 0.00 0.00 0.00 40 1013.8
20260830215542 97 0.0 4.0 0.00 0.00 0.00 40 1013.9
20260830215040 98 144 1.0 5.0 0.00 0.00 0.00 39 1014.0
20260830214538 98 144 1.0 5.0 0.00 0.00 0.00 39 1013.9
20260830214034 99 144 1.0 4.0 0.00 0.00 0.00 39 1014.0
20260830213532 99 144 1.0 5.0 0.00 0.00 0.00 38 1014.1
20260830213030 99 144 1.0 5.0 0.00 0.00 0.00 38 1014.2
20260830212526 98 0.0 4.0 0.00 0.00 0.00 41 1014.3
20260830212024 98 144 1.0 5.0 0.00 0.00 0.00 40 1014.4
20260830211522 98 0.0 5.0 0.00 0.00 0.00 40 1014.4
20260830211018 98 144 1.0 5.0 0.00 0.00 0.00 41 1014.5
20260830210516 98 144 2.0 8.0 0.00 0.00 0.00 41 1014.5
20260830210014 97 0.0 8.0 0.00 0.00 0.00 41 1014.7
20260830205512 97 165 2.0 5.0 0.00 0.00 0.00 42 1014.6
20260830205008 96 167 1.0 6.0 0.00 0.00 0.00 43 1014.7
20260830204506 96 167 2.0 8.0 0.00 0.00 0.00 42 1014.9
20260830204004 97 167 2.0 8.0 0.00 0.00 0.00 43 1015.0
20260830203502 96 155 1.0 6.0 0.00 0.00 0.00 44 1014.9
20260830202958 95 155 1.0 6.0 0.00 0.00 0.00 44 1015.0
20260830202456 95 153 1.0 5.0 0.00 0.00 0.00 44 1015.0
20260830201954 96 0.0 6.0 0.00 0.00 0.00 44 1015.1
20260830201452 95 0.0 7.0 0.00 0.00 0.00 44 1015.1
20260830200948 96 174 3.0 7.0 0.00 0.00 0.00 44 1015.3
20260830200446 96 0.0 5.0 0.00 0.00 0.00 44 1015.3
20260830195944 95 188 2.0 5.0 0.00 0.00 0.00 46 1015.4
20260830195442 95 188 1.0 9.0 0.00 0.00 0.00 46 1015.4
20260830194938 96 189 2.0 9.0 0.00 0.00 0.00 45 1015.6
20260830194436 96 169 1.0 5.0 0.00 0.00 0.00 44 1015.5
20260830193934 96 169 2.0 6.0 0.00 0.00 0.00 44 1015.6
20260830193432 96 188 1.0 9.0 0.00 0.00 0.00 45 1015.7
20260830192928 96 195 3.0 9.0 0.00 0.00 0.00 43 1015.9
20260830192426 96 177 1.0 5.0 0.00 0.00 0.00 43 1016.0
20260830191924 95 177 1.0 6.0 0.00 0.00 0.00 46 1016.0
20260830191422 95 190 1.0 8.0 0.00 0.00 0.00 45 1016.1
20260830190918 96 249 3.0 8.0 0.00 0.00 0.00 45 1016.1
20260830190416 95 254 1.0 8.0 0.00 0.00 0.00 47 1016.3
20260830185914 94 254 1.0 8.0 0.00 0.00 0.00 46 1016.3
20260830185412 94 192 1.0 8.0 0.00 0.00 0.00 46 1016.3
20260830184908 94 170 4.0 8.0 0.00 0.00 0.00 46 1016.5
20260830184406 94 167 1.0 8.0 0.00 0.00 0.00 49 1016.5
20260830183902 94 165 1.0 8.0 0.00 0.00 0.00 49 1016.5
20260830183400 94 0.0 8.0 0.00 0.00 0.00 50 1016.7
20260830182858 94 163 2.0 8.0 0.00 0.00 0.00 49 1016.7
20260830182356 94 167 1.0 6.0 0.00 0.00 0.00 50 1016.7
20260830181852 93 167 2.0 6.0 0.00 0.00 0.00 50 1016.9
20260830181350 93 167 1.0 6.0 0.00 0.00 0.00 50 1016.9
20260830180848 93 172 2.0 6.0 0.00 0.00 0.00 50 1017.1
20260830180346 93 183 1.0 6.0 0.00 0.00 0.00 52 1017.2
20260830175842 92 183 2.0 6.0 0.00 0.00 0.00 53 1017.4
20260830175340 92 191 3.0 6.0 0.00 0.00 0.00 51 1017.3
20260830174838 93 193 2.0 7.0 0.00 0.00 0.00 50 1017.5
20260830174336 93 193 2.0 5.0 0.00 0.00 0.00 52 1017.6
20260830173832 92 193 1.0 5.0 0.00 0.00 0.00 53 1017.6
20260830173330 92 0.0 10.0 0.00 0.00 0.00 53 1017.7
20260830172828 92 194 2.0 10.0 0.00 0.00 0.00 52 1017.8
20260830172326 92 178 1.0 6.0 0.00 0.00 0.00 53 1017.9
20260830171822 91 1.0 6.0 0.00 0.00 0.00 54 1018.0
20260830171319 91 178 1.0 5.0 0.00 0.00 0.00 55 1018.0
20260830170817 91 178 2.0 5.0 0.00 0.00 0.00 55 1018.1
20260830170315 91 178 1.0 5.0 0.00 0.00 0.00 56 1018.1
20260830165811 91 0.0 4.0 0.00 0.00 0.00 57 1018.0
20260830165309 90 178 1.0 6.0 0.00 0.00 0.00 58 1018.1
20260830164808 90 178 1.0 6.0 0.00 0.00 0.00 59 1018.2
20260830164305 89 178 1.0 5.0 0.00 0.00 0.00 59 1018.2
20260830163801 89 178 1.0 5.0 0.00 0.00 0.00 60 1018.2
20260830163259 89 178 1.0 5.0 0.00 0.00 0.00 60 1018.4
20260830162757 89 178 1.0 6.0 0.00 0.00 0.00 61 1018.4
20260830162255 88 178 1.0 6.0 0.00 0.00 0.00 59 1018.4
20260830161751 88 178 2.0 6.0 0.00 0.00 0.00 61 1018.5
20260830161249 88 178 1.0 4.0 0.00 0.00 0.00 61 1018.4
20260830160745 88 0.0 4.0 0.00 0.00 0.00 62 1018.4
20260830160243 88 0.0 5.0 0.00 0.00 0.00 62 1018.3
20260830155741 87 178 1.0 5.0 0.00 0.00 0.00 62 1018.2
20260830155239 87 0.0 3.0 0.00 0.00 0.00 63 1018.2
20260830154735 87 0.0 6.0 0.00 0.00 0.00 65 1018.2
20260830154233 86 177 1.0 6.0 0.00 0.00 0.00 65 1018.3
20260830153731 86 175 1.0 8.0 0.00 0.00 0.00 66 1018.2
20260830153229 86 175 2.0 9.0 0.00 0.00 0.00 66 1018.2
20260830152725 86 175 1.0 6.0 0.00 0.00 0.00 66 1018.1
20260830152223 85 175 1.0 6.0 0.00 0.00 0.00 68 1018.1
20260830151721 84 0.0 5.0 0.00 0.00 0.00 70 1018.1
20260830151219 84 0.0 5.0 0.00 0.00 0.00 71 1018.1
20260830150715 83 175 1.0 7.0 0.00 0.00 0.00 71 1018.0
20260830150213 83 175 1.0 7.0 0.00 0.00 0.00 72 1018.1
20260830145711 83 163 2.0 7.0 0.00 0.00 0.00 73 1018.0
20260830145209 82 163 1.0 6.0 0.00 0.00 0.00 75 1018.1
20260830144705 82 163 1.0 6.0 0.00 0.00 0.00 75 1018.0
20260830144203 82 0.0 5.0 0.00 0.00 0.00 77 1018.1
20260830143701 81 0.0 3.0 0.00 0.00 0.00 77 1018.0
20260830143159 81 0.0 3.0 0.00 0.00 0.00 78 1018.1
20260830142655 81 163 1.0 5.0 0.00 0.00 0.00 79 1018.2
20260830142153 80 0.0 7.0 0.00 0.00 0.00 79 1018.1
20260830141651 80 162 1.0 7.0 0.00 0.00 0.00 80 1018.1
20260830141149 80 0.0 6.0 0.00 0.00 0.00 81 1018.0
20260830140645 79 162 1.0 7.0 0.00 0.00 0.00 82 1017.9
20260830140143 79 162 3.0 7.0 0.00 0.00 0.00 82 1017.8
20260830135641 79 161 1.0 6.0 0.00 0.00 0.00 82 1017.9
20260830135139 78 163 1.0 5.0 0.00 0.00 0.00 83 1017.8
20260830134635 78 0.0 5.0 0.00 0.00 0.00 84 1017.8
20260830134133 78 163 1.0 5.0 0.00 0.00 0.00 84 1017.8
20260830133629 77 163 1.0 6.0 0.00 0.00 0.00 85 1017.8
20260830133127 77 163 1.0 6.0 0.00 0.00 0.00 85 1017.7
20260830132625 77 0.0 6.0 0.00 0.00 0.00 86 1017.7
20260830132123 76 163 1.0 3.0 0.00 0.00 0.00 86 1017.6
20260830131619 76 163 2.0 4.0 0.00 0.00 0.00 87 1017.5
20260830131117 76 0.0 2.0 0.00 0.00 0.00 87 1017.5
20260830130615 76 0.0 7.0 0.00 0.00 0.00 87 1017.5
20260830130113 75 163 1.0 7.0 0.00 0.00 0.00 87 1017.5
20260830125609 75 0.0 1.0 0.00 0.00 0.00 87 1017.4
20260830125107 75 0.0 0.0 0.00 0.00 0.00 88 1017.4
20260830124605 75 0.0 0.0 0.00 0.00 0.00 88 1017.5
20260830124103 75 0.0 0.0 0.00 0.00 0.00 87 1017.4
20260830123603 75 0.0 0.0 0.00 0.00 0.00 87 1017.3
20260830123103 75 0.0 0.0 0.00 0.00 0.00 87 1017.3
20260830122601 75 0.0 0.0 0.00 0.00 0.00 87 1017.2
20260830122059 75 0.0 0.0 0.00 0.00 0.00 86 1017.1
20260830121555 75 0.0 0.0 0.00 0.00 0.00 86 1017.1
20260830121053 75 0.0 2.0 0.00 0.00 0.00 86 1017.0
20260830120551 75 0.0 2.0 0.00 0.00 0.00 86 1017.0
20260830120049 75 0.0 2.0 0.00 0.00 0.00 85 1016.9
20260830115549 75 0.0 1.0 0.00 0.00 0.00 85 1016.9
20260830114955 75 0.0 0.0 0.00 0.00 0.00 85 1016.8
20260830114453 75 0.0 1.0 0.00 0.00 0.00 84 1016.8
20260830113950 75 0.0 1.0 0.00 0.00 0.00 84 1016.8
20260830113449 75 0.0 1.0 0.00 0.00 0.00 84 1016.8
20260830112945 76 0.0 1.0 0.00 0.00 0.00 83 1016.8
20260830112443 76 0.0 1.0 0.00 0.00 0.00 83 1016.8
20260830111940 76 0.0 1.0 0.00 0.00 0.00 83 1016.8